Flag for Germany Weather past 2 weeks in Eberswalde, Brandenburg, Germany

Now
34 °F

Passing clouds.


Feels Like: 31 °F
Forecast: 31 / 45 °F
Wind: 3 mph from South

Location: Berlin-Tegel

Current Time: Mar 4, 2015 at 8:33:15 PM

Latest Report: Mar 4, 2015 at 7:50 PM


Visibility: N/A

Pressure: 30.18 "Hg

Humidity: 93%

Dew point: 32 °F

Location of EberswaldeLocation

Historic Weather in Eberswalde — Graph

°F

Eberswalde temperature yesterday

Maximum temperature yesterday: 46 °F (at 3:20 PM)
Minimum temperature yesterday: 34 °F (at 12:20 AM)
Average temperature yesterday: 40 °F

Past Weeks' High & Low Weather Summary

 TemperatureHumidityPressure
High52 °F (Feb 21, 11:50 AM)100% (Feb 18, 4:20 AM)30.72 "Hg (Feb 18, 4:20 AM)
Low27 °F (Feb 20, 4:20 AM)37% (Feb 27, 4:50 PM)29.39 "Hg (Feb 21, 11:50 AM)
Average39 °F76%29.92 "Hg
* Reported Feb 17 7:20 PM — Mar 4 7:20 PM, Eberswalde, Weather by CustomWeather, © 2015

Note: Actual official high and low records may vary slightly from our data, if they occured in-between our weather recording intervals... More about our weather records

Advertising

Eberswalde weather history for previous 24 hours

 ConditionsComfort  
Time TempWeatherWind HumidityBarometerVisibility
7:20 PM
Wed, Mar 4
34 °FSnow flurries. Partly cloudy.5 mph93%30.18 "Hg4 mi
6:50 PM36 °FSprinkles. Partly cloudy.12 mph87%30.18 "Hg4 mi
6:20 PM41 °FPassing clouds.13 mph76%30.15 "HgN/A
5:50 PM39 °FPassing clouds.13 mph81%30.15 "HgN/A
5:20 PM39 °FPassing clouds.12 mph81%30.15 "HgN/A
4:50 PM41 °FPartly sunny.15 mph81%30.15 "HgN/A
4:20 PM39 °FBroken clouds.16 mph87%30.15 "HgN/A
3:50 PM41 °FBroken clouds.13 mph81%30.12 "HgN/A
3:20 PM39 °FPartly sunny.17 mph93%30.12 "HgN/A
2:50 PM43 °FBroken clouds.14 mph71%30.12 "HgN/A
2:20 PM41 °FLight rain. Broken clouds.14 mph87%30.12 "HgN/A
1:50 PM41 °FLight rain. Partly sunny.17 mph81%30.12 "HgN/A
1:20 PM41 °FLight rain. Partly sunny.15 mph81%30.12 "HgN/A
12:50 PM39 °FSprinkles. Partly sunny.18 mph81%30.12 "HgN/A
12:20 PM41 °FSprinkles. Broken clouds.21 mph70%30.12 "HgN/A
11:50 AM41 °FLight rain. Broken clouds.15 mph70%30.09 "HgN/A
11:20 AM43 °FBroken clouds.17 mph66%30.09 "HgN/A
10:50 AM41 °FPassing clouds.16 mph70%30.09 "HgN/A
10:20 AM41 °FPassing clouds.16 mph70%30.09 "HgN/A
9:50 AM39 °FPassing clouds.20 mph81%30.09 "HgN/A
9:20 AM37 °FPassing clouds.18 mph81%30.09 "HgN/A
8:50 AM37 °FPassing clouds.17 mph81%30.07 "HgN/A
8:20 AM36 °FPassing clouds.16 mph87%30.07 "HgN/A
7:50 AM34 °FPassing clouds.13 mph93%30.04 "HgN/A
7:20 AM34 °FPassing clouds.13 mph93%30.04 "HgN/A
6:50 AM34 °FPartly sunny.12 mph93%30.04 "HgN/A
6:20 AM34 °FPassing clouds.12 mph93%30.01 "HgN/A
5:50 AM34 °FPassing clouds.10 mph93%30.01 "HgN/A
5:20 AM34 °FPassing clouds.12 mph93%30.01 "HgN/A
4:50 AM36 °FPassing clouds.14 mph87%29.98 "HgN/A
4:20 AM36 °FPassing clouds.14 mph87%29.98 "HgN/A
3:50 AM36 °FPassing clouds.14 mph87%29.98 "HgN/A
3:20 AM36 °FPartly cloudy.13 mph93%29.95 "HgN/A
2:50 AM37 °FPassing clouds.12 mph87%29.95 "HgN/A
2:20 AM37 °FPassing clouds.10 mph87%29.95 "HgN/A
1:50 AM37 °FPartly cloudy.14 mph87%29.95 "HgN/A
1:20 AM37 °FPassing clouds.16 mph93%29.92 "HgN/A
12:50 AM37 °FLight rain. Partly cloudy.15 mph93%29.92 "HgN/A
12:20 AM39 °FPartly cloudy.15 mph87%29.92 "HgN/A
11:50 PM
Tue, Mar 3
39 °FPassing clouds.13 mph93%29.89 "HgN/A
11:20 PM39 °FPassing clouds.9 mph93%29.89 "HgN/A
10:50 PM39 °FLight rain. Partly cloudy.12 mph93%29.89 "HgN/A
10:20 PM39 °FLight rain. Partly cloudy.8 mph93%29.89 "HgN/A
9:50 PM39 °FLight rain. Passing clouds.15 mph87%29.89 "HgN/A
9:20 PM39 °FLight rain. Partly cloudy.10 mph87%29.89 "HgN/A
8:50 PM39 °FLight rain. Passing clouds.10 mph87%29.89 "HgN/A
8:20 PM39 °FLight rain. Partly cloudy.10 mph87%29.89 "HgN/A
Weather by CustomWeather, © 2015

See weather overviewHow to use our weather pages